Year,Month,Day,Hour,Minute,Value (Times are PST for temperature in C)
2014,06,30,00,00,12.20
2014,06,30,00,01,12.20
2014,06,30,00,02,12.20
2014,06,30,00,03,12.20
2014,06,30,00,04,12.10
2014,06,30,00,05,12.10
2014,06,30,00,06,12.10
2014,06,30,00,07,12.10
2014,06,30,00,08,12.10
2014,06,30,00,09,12.00
2014,06,30,00,10,12.00
2014,06,30,00,11,12.00
2014,06,30,00,12,11.90
2014,06,30,00,13,11.90
2014,06,30,00,14,11.90
2014,06,30,00,15,11.90
2014,06,30,00,16,11.90
2014,06,30,00,17,11.90
2014,06,30,00,18,11.90
2014,06,30,00,19,11.90
2014,06,30,00,20,11.90
2014,06,30,00,21,11.80
2014,06,30,00,22,11.80
2014,06,30,00,23,11.80
2014,06,30,00,24,11.80
2014,06,30,00,25,11.80
2014,06,30,00,26,11.80
2014,06,30,00,27,11.80
2014,06,30,00,28,11.80
2014,06,30,00,29,11.80
2014,06,30,00,30,11.80
2014,06,30,00,31,11.70
2014,06,30,00,32,11.70
2014,06,30,00,33,11.70
2014,06,30,00,34,11.70
2014,06,30,00,35,11.70
2014,06,30,00,36,11.70
2014,06,30,00,37,11.70
2014,06,30,00,38,11.70
2014,06,30,00,39,11.70
2014,06,30,00,40,11.70
2014,06,30,00,41,11.70
2014,06,30,00,42,11.60
2014,06,30,00,43,11.60
2014,06,30,00,44,11.60
2014,06,30,00,45,11.60
2014,06,30,00,46,11.60
2014,06,30,00,47,11.60
2014,06,30,00,48,11.60
2014,06,30,00,49,11.60
2014,06,30,00,50,11.60
2014,06,30,00,51,11.60
2014,06,30,00,52,11.50
2014,06,30,00,53,11.50
2014,06,30,00,54,11.50
2014,06,30,00,55,11.50
2014,06,30,00,56,11.50
2014,06,30,00,57,11.50
2014,06,30,00,58,11.40
2014,06,30,00,59,11.40
2014,06,30,01,00,11.40
2014,06,30,01,01,11.40
2014,06,30,01,02,11.40
2014,06,30,01,03,11.40
2014,06,30,01,04,11.40
2014,06,30,01,05,11.40
2014,06,30,01,06,11.40
2014,06,30,01,07,11.40
2014,06,30,01,08,11.40
2014,06,30,01,09,11.30
2014,06,30,01,10,11.30
2014,06,30,01,11,11.30
2014,06,30,01,12,11.30
2014,06,30,01,13,11.30
2014,06,30,01,14,11.30
2014,06,30,01,15,11.30
2014,06,30,01,16,11.30
2014,06,30,01,17,11.30
2014,06,30,01,18,11.30
2014,06,30,01,19,11.30
2014,06,30,01,20,11.30
2014,06,30,01,21,11.30
2014,06,30,01,22,11.20
2014,06,30,01,23,11.20
2014,06,30,01,24,11.20
2014,06,30,01,25,11.20
2014,06,30,01,26,11.20
2014,06,30,01,27,11.20
2014,06,30,01,28,11.10
2014,06,30,01,29,11.10
2014,06,30,01,30,11.10
2014,06,30,01,31,11.10
2014,06,30,01,32,11.10
2014,06,30,01,33,11.10
2014,06,30,01,34,11.10
2014,06,30,01,35,11.10
2014,06,30,01,36,11.00
2014,06,30,01,37,11.00
2014,06,30,01,38,11.00
2014,06,30,01,39,11.00
2014,06,30,01,40,11.00
2014,06,30,01,41,11.00
2014,06,30,01,42,10.90
2014,06,30,01,43,11.00
2014,06,30,01,44,11.00
2014,06,30,01,45,11.00
2014,06,30,01,46,11.00
2014,06,30,01,47,11.00
2014,06,30,01,48,10.90
2014,06,30,01,49,10.90
2014,06,30,01,50,10.90
2014,06,30,01,51,10.90
2014,06,30,01,52,10.90
2014,06,30,01,53,10.90
2014,06,30,01,54,10.90
2014,06,30,01,55,10.90
2014,06,30,01,56,10.80
2014,06,30,01,57,10.80
2014,06,30,01,58,10.80
2014,06,30,01,59,10.80
2014,06,30,02,00,10.80
2014,06,30,02,01,10.80
2014,06,30,02,02,10.80
2014,06,30,02,03,10.80
2014,06,30,02,04,10.80
2014,06,30,02,05,10.80
2014,06,30,02,06,10.80
2014,06,30,02,07,10.80
2014,06,30,02,08,10.80
2014,06,30,02,09,10.80
2014,06,30,02,10,10.80
2014,06,30,02,11,10.80
2014,06,30,02,12,10.80
2014,06,30,02,13,10.80
2014,06,30,02,14,10.80
2014,06,30,02,15,10.80
2014,06,30,02,16,10.70
2014,06,30,02,17,10.70
2014,06,30,02,18,10.70
2014,06,30,02,19,10.70
2014,06,30,02,20,10.70
2014,06,30,02,21,10.70
2014,06,30,02,22,10.70
2014,06,30,02,23,10.70
2014,06,30,02,24,10.70
2014,06,30,02,25,10.70
2014,06,30,02,26,10.70
2014,06,30,02,27,10.70
2014,06,30,02,28,10.70
2014,06,30,02,29,10.70
2014,06,30,02,30,10.70
2014,06,30,02,31,10.70
2014,06,30,02,32,10.70
2014,06,30,02,33,10.70
2014,06,30,02,34,10.70
2014,06,30,02,35,10.70
2014,06,30,02,36,10.70
2014,06,30,02,37,10.70
2014,06,30,02,38,10.70
2014,06,30,02,39,10.70
2014,06,30,02,40,10.70
2014,06,30,02,41,10.70
2014,06,30,02,42,10.60
2014,06,30,02,43,10.60
2014,06,30,02,44,10.60
2014,06,30,02,45,10.60
2014,06,30,02,46,10.60
2014,06,30,02,47,10.60
2014,06,30,02,48,10.50
2014,06,30,02,49,10.50
2014,06,30,02,50,10.50
2014,06,30,02,51,10.50
2014,06,30,02,52,10.50
2014,06,30,02,53,10.50
2014,06,30,02,54,10.50
2014,06,30,02,55,10.40
2014,06,30,02,56,10.40
2014,06,30,02,57,10.40
2014,06,30,02,58,10.40
2014,06,30,02,59,10.40
2014,06,30,03,00,10.40
2014,06,30,03,01,10.40
2014,06,30,03,02,10.40
2014,06,30,03,06,10.30
2014,06,30,03,07,10.30
2014,06,30,03,08,10.30
2014,06,30,03,09,10.30
2014,06,30,03,10,10.30
2014,06,30,03,11,10.30
2014,06,30,03,12,10.30
2014,06,30,03,13,10.30
2014,06,30,03,14,10.30
2014,06,30,03,15,10.30
2014,06,30,03,16,10.30
2014,06,30,03,17,10.30
2014,06,30,03,18,10.30
2014,06,30,03,19,10.30
2014,06,30,03,20,10.30
2014,06,30,03,21,10.30
2014,06,30,03,22,10.30
2014,06,30,03,23,10.30
2014,06,30,03,24,10.30
2014,06,30,03,25,10.30
2014,06,30,03,26,10.30
2014,06,30,03,27,10.30
2014,06,30,03,28,10.30
2014,06,30,03,29,10.30
2014,06,30,03,30,10.30
2014,06,30,03,31,10.30
2014,06,30,03,32,10.30
2014,06,30,03,33,10.30
2014,06,30,03,34,10.30
2014,06,30,03,35,10.20
2014,06,30,03,36,10.20
2014,06,30,03,37,10.20
2014,06,30,03,38,10.20
2014,06,30,03,39,10.20
2014,06,30,03,40,10.20
2014,06,30,03,41,10.30
2014,06,30,03,42,10.30
2014,06,30,03,43,10.30
2014,06,30,03,44,10.30
2014,06,30,03,45,10.30
2014,06,30,03,46,10.30
2014,06,30,03,47,10.30
2014,06,30,03,48,10.20
2014,06,30,03,49,10.20
2014,06,30,03,50,10.20
2014,06,30,03,51,10.20
2014,06,30,03,52,10.20
2014,06,30,03,53,10.20
2014,06,30,03,54,10.20
2014,06,30,03,55,10.20
2014,06,30,03,56,10.20
2014,06,30,03,57,10.20
2014,06,30,03,58,10.20
2014,06,30,03,59,10.20
2014,06,30,04,00,10.20
2014,06,30,04,01,10.20
2014,06,30,04,02,10.20
2014,06,30,04,03,10.20
2014,06,30,04,04,10.20
2014,06,30,04,05,10.20
2014,06,30,04,06,10.20
2014,06,30,04,07,10.20
2014,06,30,04,08,10.10
2014,06,30,04,09,10.10
2014,06,30,04,10,10.10
2014,06,30,04,11,10.10
2014,06,30,04,12,10.10
2014,06,30,04,13,10.10
2014,06,30,04,14,10.10
2014,06,30,04,15,10.00
2014,06,30,04,16,10.00
2014,06,30,04,17,10.00
2014,06,30,04,18,10.00
2014,06,30,04,19,10.00
2014,06,30,04,20,10.00
2014,06,30,04,21,10.00
2014,06,30,04,22,10.00
2014,06,30,04,23,10.00
2014,06,30,04,24,10.00
2014,06,30,04,25,10.00
2014,06,30,04,26,9.90
2014,06,30,04,27,9.90
2014,06,30,04,28,9.90
2014,06,30,04,29,9.90
2014,06,30,04,30,9.90
2014,06,30,04,31,9.90
2014,06,30,04,32,9.90
2014,06,30,04,33,9.90
2014,06,30,04,34,9.90
2014,06,30,04,35,9.90
2014,06,30,04,36,9.90
2014,06,30,04,37,9.90
2014,06,30,04,38,9.90
2014,06,30,04,39,9.90
2014,06,30,04,40,9.90
2014,06,30,04,41,9.90
2014,06,30,04,42,9.90
2014,06,30,04,43,9.90
2014,06,30,04,44,9.90
2014,06,30,04,45,9.90
2014,06,30,04,46,9.90
2014,06,30,04,47,9.90
2014,06,30,04,48,9.90
2014,06,30,04,49,9.80
2014,06,30,04,50,9.80
2014,06,30,04,51,9.80
2014,06,30,04,52,9.80
2014,06,30,04,53,9.80
2014,06,30,04,54,9.80
2014,06,30,04,55,9.90
2014,06,30,04,56,9.90
2014,06,30,04,57,9.90
2014,06,30,04,58,9.90
2014,06,30,04,59,9.90
2014,06,30,05,00,9.90
2014,06,30,05,01,9.90
2014,06,30,05,02,9.90
2014,06,30,05,03,9.90
2014,06,30,05,04,9.90
2014,06,30,05,05,9.90
2014,06,30,05,06,9.90
2014,06,30,05,07,9.90
2014,06,30,05,08,9.90
2014,06,30,05,09,9.90
2014,06,30,05,10,9.90
2014,06,30,05,11,9.90
2014,06,30,05,12,9.90
2014,06,30,05,13,9.90
2014,06,30,05,14,9.90
2014,06,30,05,15,9.90
2014,06,30,05,16,9.90
2014,06,30,05,17,9.90
2014,06,30,05,18,9.90
2014,06,30,05,19,9.90
2014,06,30,05,20,9.90
2014,06,30,05,21,9.90
2014,06,30,05,22,9.90
2014,06,30,05,23,9.90
2014,06,30,05,24,9.90
2014,06,30,05,25,9.90
2014,06,30,05,26,9.90
2014,06,30,05,27,9.90
2014,06,30,05,28,9.90
2014,06,30,05,29,9.90
2014,06,30,05,30,9.90
2014,06,30,05,31,9.90
2014,06,30,05,32,10.00
2014,06,30,05,33,9.90
2014,06,30,05,34,9.90
2014,06,30,05,35,9.90
2014,06,30,05,36,9.90
2014,06,30,05,37,9.90
2014,06,30,05,38,9.90
2014,06,30,05,39,9.90
2014,06,30,05,40,9.90
2014,06,30,05,41,9.90
2014,06,30,05,42,9.90
2014,06,30,05,43,9.90
2014,06,30,05,44,9.90
2014,06,30,05,45,9.90
2014,06,30,05,46,9.90
2014,06,30,05,47,9.90
2014,06,30,05,48,10.00
2014,06,30,05,49,10.00
2014,06,30,05,50,10.10
2014,06,30,05,51,10.10
2014,06,30,05,52,10.20
2014,06,30,05,53,10.30
2014,06,30,05,54,10.30
2014,06,30,05,55,10.40
2014,06,30,05,56,10.50
2014,06,30,05,57,10.60
2014,06,30,05,58,10.60
2014,06,30,05,59,10.70
2014,06,30,06,00,10.80
2014,06,30,06,01,10.90
2014,06,30,06,02,11.00
2014,06,30,06,03,11.00
2014,06,30,06,04,11.10
2014,06,30,06,05,11.20
2014,06,30,06,06,11.30
2014,06,30,06,07,11.40
2014,06,30,06,08,11.40
2014,06,30,06,09,11.40
2014,06,30,06,10,11.50
2014,06,30,06,11,11.50
2014,06,30,06,12,11.60
2014,06,30,06,13,11.60
2014,06,30,06,14,11.70
2014,06,30,06,15,11.70
2014,06,30,06,16,11.70
2014,06,30,06,17,11.70
2014,06,30,06,18,11.80
2014,06,30,06,19,11.80
2014,06,30,06,20,11.80
2014,06,30,06,21,11.80
2014,06,30,06,22,11.90
2014,06,30,06,23,11.90
2014,06,30,06,24,12.00
2014,06,30,06,25,12.00
2014,06,30,06,26,12.10
2014,06,30,06,27,12.10
2014,06,30,06,28,12.20
2014,06,30,06,29,12.20
2014,06,30,06,30,12.30
2014,06,30,06,31,12.30
2014,06,30,06,32,12.30
2014,06,30,06,33,12.30
2014,06,30,06,34,12.30
2014,06,30,06,35,12.40
2014,06,30,06,36,12.40
2014,06,30,06,37,12.40
2014,06,30,06,38,12.50
2014,06,30,06,39,12.50
2014,06,30,06,40,12.50
2014,06,30,06,41,12.60
2014,06,30,06,42,12.60
2014,06,30,06,43,12.60
2014,06,30,06,44,12.60
2014,06,30,06,45,12.70
2014,06,30,06,46,12.70
2014,06,30,06,47,12.70
2014,06,30,06,48,12.70
2014,06,30,06,49,12.70
2014,06,30,06,50,12.70
2014,06,30,06,51,12.70
2014,06,30,06,52,12.80
2014,06,30,06,53,12.80
2014,06,30,06,54,12.80
2014,06,30,06,55,12.80
2014,06,30,06,56,12.80
2014,06,30,06,57,12.90
2014,06,30,06,58,12.90
2014,06,30,06,59,13.00
2014,06,30,07,00,13.00
2014,06,30,07,01,13.10
2014,06,30,07,02,13.10
2014,06,30,07,03,13.10
2014,06,30,07,04,13.10
2014,06,30,07,05,13.20
2014,06,30,07,06,13.20
2014,06,30,07,07,13.20
2014,06,30,07,08,13.20
2014,06,30,07,09,13.20
2014,06,30,07,10,13.20
2014,06,30,07,11,13.20
2014,06,30,07,12,13.30
2014,06,30,07,13,13.30
2014,06,30,07,14,13.30
2014,06,30,07,15,13.30
2014,06,30,07,16,13.30
2014,06,30,07,17,13.30
2014,06,30,07,18,13.30
2014,06,30,07,19,13.30
2014,06,30,07,20,13.30
2014,06,30,07,21,13.30
2014,06,30,07,22,13.30
2014,06,30,07,23,13.40
2014,06,30,07,24,13.40
2014,06,30,07,25,13.40
2014,06,30,07,26,13.40
2014,06,30,07,27,13.40
2014,06,30,07,28,13.40
2014,06,30,07,29,13.50
2014,06,30,07,30,13.50
2014,06,30,07,31,13.50
2014,06,30,07,32,13.50
2014,06,30,07,33,13.60
2014,06,30,07,34,13.60
2014,06,30,07,35,13.60
2014,06,30,07,36,13.60
2014,06,30,07,37,13.70
2014,06,30,07,38,13.70
2014,06,30,07,39,13.70
2014,06,30,07,40,13.80
2014,06,30,07,41,13.80
2014,06,30,07,42,13.90
2014,06,30,07,43,13.90
2014,06,30,07,44,13.90
2014,06,30,07,45,14.00
2014,06,30,07,46,14.00
2014,06,30,07,47,14.10
2014,06,30,07,48,14.10
2014,06,30,07,49,14.20
2014,06,30,07,50,14.20
2014,06,30,07,51,14.30
2014,06,30,07,52,14.30
2014,06,30,07,53,14.40
2014,06,30,07,54,14.40
2014,06,30,07,55,14.40
2014,06,30,07,56,14.40
2014,06,30,07,57,14.50
2014,06,30,07,58,14.50
2014,06,30,07,59,14.50
2014,06,30,08,00,14.50
2014,06,30,08,01,14.50
2014,06,30,08,02,14.50
2014,06,30,08,03,14.60
2014,06,30,08,04,14.60
2014,06,30,08,05,14.60
2014,06,30,08,06,14.60
2014,06,30,08,07,14.70
2014,06,30,08,08,14.70
2014,06,30,08,09,14.70
2014,06,30,08,10,14.80
2014,06,30,08,11,14.80
2014,06,30,08,12,14.80
2014,06,30,08,13,14.90
2014,06,30,08,14,14.90
2014,06,30,08,15,15.00
2014,06,30,08,16,15.00
2014,06,30,08,17,15.10
2014,06,30,08,18,15.00
2014,06,30,08,19,15.10
2014,06,30,08,20,15.10
2014,06,30,08,21,15.10
2014,06,30,08,22,15.10
2014,06,30,08,23,15.10
2014,06,30,08,24,15.20
2014,06,30,08,25,15.20
2014,06,30,08,26,15.20
2014,06,30,08,27,15.20
2014,06,30,08,28,15.20
2014,06,30,08,29,15.20
2014,06,30,08,30,15.20
2014,06,30,08,31,15.20
2014,06,30,08,32,15.20
2014,06,30,08,33,15.30
2014,06,30,08,34,15.30
2014,06,30,08,35,15.30
2014,06,30,08,36,15.30
2014,06,30,08,37,15.40
2014,06,30,08,38,15.40
2014,06,30,08,39,15.50
2014,06,30,08,40,15.60
2014,06,30,08,41,15.60
2014,06,30,08,42,15.60
2014,06,30,08,43,15.70
2014,06,30,08,44,15.70
2014,06,30,08,45,15.70
2014,06,30,08,46,15.80
2014,06,30,08,47,15.80
2014,06,30,08,48,15.80
2014,06,30,08,49,15.90
2014,06,30,08,50,15.90
2014,06,30,08,51,15.90
2014,06,30,08,52,16.00
2014,06,30,08,53,16.00
2014,06,30,08,54,16.00
2014,06,30,08,55,16.10
2014,06,30,08,56,16.10
2014,06,30,08,57,16.10
2014,06,30,08,58,16.20
2014,06,30,08,59,16.20
2014,06,30,09,00,16.20
2014,06,30,09,01,16.30
2014,06,30,09,02,16.30
2014,06,30,09,03,16.30
2014,06,30,09,04,16.30
2014,06,30,09,05,16.40
2014,06,30,09,06,16.40
2014,06,30,09,07,16.40
2014,06,30,09,08,16.50
2014,06,30,09,09,16.50
2014,06,30,09,10,16.60
2014,06,30,09,11,16.60
2014,06,30,09,12,16.70
2014,06,30,09,13,16.80
2014,06,30,09,14,16.90
2014,06,30,09,15,17.00
2014,06,30,09,16,17.10
2014,06,30,09,17,17.10
2014,06,30,09,18,17.10
2014,06,30,09,19,17.10
2014,06,30,09,20,17.10
2014,06,30,09,21,17.10
2014,06,30,09,22,17.10
2014,06,30,09,23,17.20
2014,06,30,09,24,17.20
2014,06,30,09,25,17.30
2014,06,30,09,26,17.30
2014,06,30,09,27,17.30
2014,06,30,09,28,17.30
2014,06,30,09,29,17.40
2014,06,30,09,30,17.40
2014,06,30,09,31,17.40
2014,06,30,09,32,17.40
2014,06,30,09,33,17.50
2014,06,30,09,34,17.50
2014,06,30,09,35,17.50
2014,06,30,09,36,17.50
2014,06,30,09,37,17.50
2014,06,30,09,38,17.50
2014,06,30,09,39,17.50
2014,06,30,09,40,17.60
2014,06,30,09,41,17.60
2014,06,30,09,42,17.70
2014,06,30,09,43,17.80
2014,06,30,09,44,17.80
2014,06,30,09,45,17.80
2014,06,30,09,46,17.90
2014,06,30,09,47,18.00
2014,06,30,09,48,18.10
2014,06,30,09,49,18.10
2014,06,30,09,50,18.20
2014,06,30,09,51,18.30
2014,06,30,09,52,18.30
2014,06,30,09,53,18.40
2014,06,30,09,54,18.50
2014,06,30,09,55,18.70
2014,06,30,09,56,18.80
2014,06,30,09,57,18.90
2014,06,30,09,58,19.00
2014,06,30,09,59,19.10
2014,06,30,10,00,19.20
2014,06,30,10,01,19.30
2014,06,30,10,02,19.40
2014,06,30,10,03,19.40
2014,06,30,10,04,19.50
2014,06,30,10,05,19.60
2014,06,30,10,06,19.70
2014,06,30,10,07,19.80
2014,06,30,10,08,19.80
2014,06,30,10,09,19.80
2014,06,30,10,10,19.80
2014,06,30,10,11,19.80
2014,06,30,10,12,19.80
2014,06,30,10,13,19.80
2014,06,30,10,14,19.90
2014,06,30,10,15,19.90
2014,06,30,10,16,19.90
2014,06,30,10,17,20.00
2014,06,30,10,18,20.10
2014,06,30,10,19,20.10
2014,06,30,10,20,20.20
2014,06,30,10,21,20.20
2014,06,30,10,22,20.20
2014,06,30,10,23,20.30
2014,06,30,10,24,20.40
2014,06,30,10,25,20.40
2014,06,30,10,26,20.50
2014,06,30,10,27,20.50
2014,06,30,10,28,20.50
2014,06,30,10,29,20.40
2014,06,30,10,30,20.30
2014,06,30,10,31,20.30
2014,06,30,10,32,20.30
2014,06,30,10,33,20.20
2014,06,30,10,34,20.20
2014,06,30,10,35,20.30
2014,06,30,10,36,20.30
2014,06,30,10,37,20.30
2014,06,30,10,38,20.30
2014,06,30,10,39,20.30
2014,06,30,10,40,20.40
2014,06,30,10,41,20.40
2014,06,30,10,42,20.40
2014,06,30,10,43,20.40
2014,06,30,10,44,20.30
2014,06,30,10,45,20.30
2014,06,30,10,46,20.40
2014,06,30,10,47,20.40
2014,06,30,10,48,20.50
2014,06,30,10,49,20.50
2014,06,30,10,50,20.60
2014,06,30,10,51,20.60
2014,06,30,10,52,20.70
2014,06,30,10,53,20.70
2014,06,30,10,54,20.60
2014,06,30,10,55,20.40
2014,06,30,10,56,20.30
2014,06,30,10,57,20.20
2014,06,30,10,58,20.10
2014,06,30,10,59,20.00
2014,06,30,11,00,19.90
2014,06,30,11,01,19.90
2014,06,30,11,02,19.90
2014,06,30,11,03,19.80
2014,06,30,11,04,19.70
2014,06,30,11,05,19.70
2014,06,30,11,06,19.70
2014,06,30,11,07,19.70
2014,06,30,11,08,19.80
2014,06,30,11,09,19.80
2014,06,30,11,10,19.80
2014,06,30,11,11,19.80
2014,06,30,11,12,19.80
2014,06,30,11,13,19.80
2014,06,30,11,14,19.80
2014,06,30,11,15,19.80
2014,06,30,11,16,19.80
2014,06,30,11,17,19.70
2014,06,30,11,18,19.70
2014,06,30,11,19,19.60
2014,06,30,11,20,19.50
2014,06,30,11,21,19.50
2014,06,30,11,22,19.40
2014,06,30,11,23,19.40
2014,06,30,11,24,19.40
2014,06,30,11,25,19.40
2014,06,30,11,26,19.40
2014,06,30,11,27,19.50
2014,06,30,11,28,19.50
2014,06,30,11,29,19.60
2014,06,30,11,30,19.60
2014,06,30,11,31,19.60
2014,06,30,11,32,19.70
2014,06,30,11,33,19.80
2014,06,30,11,34,19.80
2014,06,30,11,35,19.90
2014,06,30,11,36,20.00
2014,06,30,11,37,20.00
2014,06,30,11,38,20.10
2014,06,30,11,39,20.10
2014,06,30,11,40,20.10
2014,06,30,11,41,20.10
2014,06,30,11,42,20.10
2014,06,30,11,43,20.10
2014,06,30,11,44,20.10
2014,06,30,11,45,20.00
2014,06,30,11,46,20.00
2014,06,30,11,47,20.00
2014,06,30,11,48,20.00
2014,06,30,11,49,20.10
2014,06,30,11,50,20.10
2014,06,30,11,51,20.10
2014,06,30,11,52,20.10
2014,06,30,11,53,20.20
2014,06,30,11,54,20.20
2014,06,30,11,55,20.20
2014,06,30,11,56,20.30
2014,06,30,11,57,20.30
2014,06,30,11,58,20.40
2014,06,30,11,59,20.40
2014,06,30,12,00,20.40
2014,06,30,12,01,20.50
2014,06,30,12,02,20.50
2014,06,30,12,03,20.60
2014,06,30,12,04,20.70
2014,06,30,12,05,20.80
2014,06,30,12,06,20.80
2014,06,30,12,07,20.80
2014,06,30,12,08,20.80
2014,06,30,12,09,20.90
2014,06,30,12,10,20.90
2014,06,30,12,11,21.00
2014,06,30,12,12,21.10
2014,06,30,12,13,21.10
2014,06,30,12,14,21.20
2014,06,30,12,15,21.30
2014,06,30,12,16,21.30
2014,06,30,12,17,21.30
2014,06,30,12,18,21.40
2014,06,30,12,19,21.40
2014,06,30,12,20,21.40
2014,06,30,12,21,21.40
2014,06,30,12,22,21.40
2014,06,30,12,23,21.50
2014,06,30,12,24,21.60
2014,06,30,12,25,21.70
2014,06,30,12,26,21.80
2014,06,30,12,27,21.90
2014,06,30,12,28,21.90
2014,06,30,12,29,22.00
2014,06,30,12,30,22.00
2014,06,30,12,31,22.10
2014,06,30,12,32,22.20
2014,06,30,12,33,22.20
2014,06,30,12,34,22.30
2014,06,30,12,35,22.40
2014,06,30,12,36,22.40
2014,06,30,12,37,22.50
2014,06,30,12,38,22.50
2014,06,30,12,39,22.60
2014,06,30,12,40,22.60
2014,06,30,12,41,22.50
2014,06,30,12,42,22.40
2014,06,30,12,43,22.40
2014,06,30,12,44,22.40
2014,06,30,12,45,22.30
2014,06,30,12,46,22.20
2014,06,30,12,47,22.20
2014,06,30,12,48,22.20
2014,06,30,12,49,22.20
2014,06,30,12,50,22.30
2014,06,30,12,51,22.30
2014,06,30,12,52,22.30
2014,06,30,12,53,22.30
2014,06,30,12,54,22.30
2014,06,30,12,55,22.30
2014,06,30,12,56,22.30
2014,06,30,12,57,22.40
2014,06,30,12,58,22.40
2014,06,30,12,59,22.50
2014,06,30,13,00,22.60
2014,06,30,13,01,22.60
2014,06,30,13,02,22.60
2014,06,30,13,03,22.70
2014,06,30,13,04,22.70
2014,06,30,13,05,22.70
2014,06,30,13,06,22.70
2014,06,30,13,07,22.70
2014,06,30,13,08,22.70
2014,06,30,13,09,22.60
2014,06,30,13,10,22.60
2014,06,30,13,11,22.60
2014,06,30,13,12,22.70
2014,06,30,13,13,22.80
2014,06,30,13,14,22.80
2014,06,30,13,15,22.80
2014,06,30,13,16,22.90
2014,06,30,13,17,22.90
2014,06,30,13,18,22.90
2014,06,30,13,19,23.00
2014,06,30,13,20,23.00
2014,06,30,13,21,22.90
2014,06,30,13,22,22.90
2014,06,30,13,23,22.90
2014,06,30,13,24,23.00
2014,06,30,13,25,23.00
2014,06,30,13,26,23.10
2014,06,30,13,27,23.20
2014,06,30,13,28,23.30
2014,06,30,13,29,23.30
2014,06,30,13,30,23.30
2014,06,30,13,31,23.30
2014,06,30,13,32,23.40
2014,06,30,13,33,23.50
2014,06,30,13,34,23.50
2014,06,30,13,35,23.60
2014,06,30,13,36,23.70
2014,06,30,13,37,23.80
2014,06,30,13,38,23.90
2014,06,30,13,39,23.90
2014,06,30,13,40,23.90
2014,06,30,13,41,23.90
2014,06,30,13,42,23.90
2014,06,30,13,43,23.80
2014,06,30,13,44,23.70
2014,06,30,13,45,23.60
2014,06,30,13,46,23.50
2014,06,30,13,47,23.40
2014,06,30,13,48,23.30
2014,06,30,13,49,23.10
2014,06,30,13,50,23.00
2014,06,30,13,51,22.90
2014,06,30,13,52,22.90
2014,06,30,13,53,23.00
2014,06,30,13,54,23.10
2014,06,30,13,55,23.10
2014,06,30,13,56,23.10
2014,06,30,13,57,23.10
2014,06,30,13,58,23.20
2014,06,30,13,59,23.20
2014,06,30,14,00,23.20
2014,06,30,14,01,23.30
2014,06,30,14,02,23.30
2014,06,30,14,03,23.40
2014,06,30,14,04,23.50
2014,06,30,14,05,23.50
2014,06,30,14,06,23.60
2014,06,30,14,07,23.60
2014,06,30,14,08,23.70
2014,06,30,14,09,23.70
2014,06,30,14,10,23.70
2014,06,30,14,11,23.70
2014,06,30,14,12,23.70
2014,06,30,14,13,23.70
2014,06,30,14,14,23.70
2014,06,30,14,15,23.70
2014,06,30,14,16,23.70
2014,06,30,14,17,23.70
2014,06,30,14,18,23.70
2014,06,30,14,19,23.70
2014,06,30,14,20,23.60
2014,06,30,14,21,23.60
2014,06,30,14,22,23.60
2014,06,30,14,23,23.60
2014,06,30,14,24,23.60
2014,06,30,14,25,23.60
2014,06,30,14,26,23.60
2014,06,30,14,27,23.50
2014,06,30,14,28,23.50
2014,06,30,14,29,23.40
2014,06,30,14,30,23.40
2014,06,30,14,31,23.40
2014,06,30,14,32,23.50
2014,06,30,14,33,23.50
2014,06,30,14,34,23.60
2014,06,30,14,35,23.70
2014,06,30,14,36,23.80
2014,06,30,14,37,23.80
2014,06,30,14,38,23.80
2014,06,30,14,39,23.70
2014,06,30,14,40,23.60
2014,06,30,14,41,23.60
2014,06,30,14,42,23.60
2014,06,30,14,43,23.60
2014,06,30,14,44,23.70
2014,06,30,14,45,23.80
2014,06,30,14,46,23.80
2014,06,30,14,47,23.90
2014,06,30,14,48,23.90
2014,06,30,14,49,24.00
2014,06,30,14,50,24.00
2014,06,30,14,51,24.10
2014,06,30,14,52,24.20
2014,06,30,14,53,24.20
2014,06,30,14,54,24.30
2014,06,30,14,55,24.30
2014,06,30,14,56,24.30
2014,06,30,14,57,24.20
2014,06,30,14,58,24.10
2014,06,30,14,59,24.00
2014,06,30,15,00,23.90
2014,06,30,15,01,23.90
2014,06,30,15,02,23.90
2014,06,30,15,03,23.90
2014,06,30,15,04,24.00
2014,06,30,15,05,24.00
2014,06,30,15,06,24.10
2014,06,30,15,07,24.10
2014,06,30,15,08,24.10
2014,06,30,15,09,24.20
2014,06,30,15,10,24.20
2014,06,30,15,11,24.20
2014,06,30,15,12,24.20
2014,06,30,15,13,24.20
2014,06,30,15,14,24.20
2014,06,30,15,15,24.10
2014,06,30,15,16,24.00
2014,06,30,15,17,23.90
2014,06,30,15,18,23.80
2014,06,30,15,19,23.80
2014,06,30,15,20,23.80
2014,06,30,15,21,23.90
2014,06,30,15,22,23.90
2014,06,30,15,23,24.00
2014,06,30,15,24,24.00
2014,06,30,15,25,24.10
2014,06,30,15,26,24.10
2014,06,30,15,27,24.10
2014,06,30,15,28,24.10
2014,06,30,15,29,24.00
2014,06,30,15,30,24.00
2014,06,30,15,31,24.00
2014,06,30,15,32,23.90
2014,06,30,15,33,23.90
2014,06,30,15,34,24.00
2014,06,30,15,35,24.00
2014,06,30,15,36,24.10
2014,06,30,15,37,24.10
2014,06,30,15,38,24.10
2014,06,30,15,39,24.20
2014,06,30,15,40,24.20
2014,06,30,15,41,24.10
2014,06,30,15,42,24.10
2014,06,30,15,43,24.10
2014,06,30,15,44,24.00
2014,06,30,15,45,24.00
2014,06,30,15,46,23.90
2014,06,30,15,47,23.90
2014,06,30,15,48,23.90
2014,06,30,15,49,23.80
2014,06,30,15,50,23.80
2014,06,30,15,51,23.90
2014,06,30,15,52,23.90
2014,06,30,15,53,23.90
2014,06,30,15,54,24.00
2014,06,30,15,55,24.00
2014,06,30,15,56,24.10
2014,06,30,15,57,24.20
2014,06,30,15,58,24.20
2014,06,30,15,59,24.20
2014,06,30,16,00,24.30
2014,06,30,16,01,24.30
2014,06,30,16,02,24.30
2014,06,30,16,03,24.30
2014,06,30,16,04,24.30
2014,06,30,16,05,24.30
2014,06,30,16,06,24.30
2014,06,30,16,07,24.20
2014,06,30,16,08,24.10
2014,06,30,16,09,24.10
2014,06,30,16,10,24.10
2014,06,30,16,11,24.10
2014,06,30,16,12,24.10
2014,06,30,16,13,24.10
2014,06,30,16,14,24.20
2014,06,30,16,15,24.20
2014,06,30,16,16,24.20
2014,06,30,16,17,24.20
2014,06,30,16,18,24.20
2014,06,30,16,19,24.20
2014,06,30,16,20,24.20
2014,06,30,16,21,24.20
2014,06,30,16,22,24.20
2014,06,30,16,23,24.20
2014,06,30,16,24,24.20
2014,06,30,16,25,24.20
2014,06,30,16,26,24.20
2014,06,30,16,27,24.20
2014,06,30,16,28,24.20
2014,06,30,16,29,24.20
2014,06,30,16,30,24.30
2014,06,30,16,31,24.30
2014,06,30,16,32,24.30
2014,06,30,16,33,24.20
2014,06,30,16,34,24.10
2014,06,30,16,35,24.00
2014,06,30,16,36,24.00
2014,06,30,16,37,23.90
2014,06,30,16,38,23.90
2014,06,30,16,39,23.90
2014,06,30,16,40,23.90
2014,06,30,16,41,24.00
2014,06,30,16,42,24.00
2014,06,30,16,43,24.10
2014,06,30,16,44,24.10
2014,06,30,16,45,24.10
2014,06,30,16,46,24.20
2014,06,30,16,47,24.20
2014,06,30,16,48,24.20
2014,06,30,16,49,24.30
2014,06,30,16,50,24.30
2014,06,30,16,51,24.20
2014,06,30,16,52,24.20
2014,06,30,16,53,24.30
2014,06,30,16,54,24.30
2014,06,30,16,55,24.30
2014,06,30,16,56,24.40
2014,06,30,16,57,24.30
2014,06,30,16,58,24.30
2014,06,30,16,59,24.30
2014,06,30,17,00,24.20
2014,06,30,17,01,24.20
2014,06,30,17,02,24.20
2014,06,30,17,03,24.10
2014,06,30,17,04,24.10
2014,06,30,17,05,24.10
2014,06,30,17,06,24.10
2014,06,30,17,07,24.10
2014,06,30,17,08,24.00
2014,06,30,17,09,24.00
2014,06,30,17,10,24.00
2014,06,30,17,11,24.00
2014,06,30,17,12,24.00
2014,06,30,17,13,24.10
2014,06,30,17,14,24.00
2014,06,30,17,15,24.10
2014,06,30,17,16,24.10
2014,06,30,17,17,24.10
2014,06,30,17,18,24.10
2014,06,30,17,19,24.10
2014,06,30,17,20,24.10
2014,06,30,17,21,24.00
2014,06,30,17,22,24.10
2014,06,30,17,23,24.10
2014,06,30,17,24,24.10
2014,06,30,17,25,24.10